CAPE
0 0 0 3 177 463 579 653 1032 975 945 1083 884 728 682 318 20 5 1 0 13 42 24 11 28 29 18 10 7 0 2 4 2 0 11 12 15 9 11 9 21 20 42
0 0 0 0 74 527 1150 1119 1108 1043 817 1091 1012 753 666 177 29 8 7 4 6 26 27 11 23 10 10 63 55 9 4 1 0 5 14 13 21 24 31 59 38 25 38
0 0 0 0 71 430 915 1395 1147 1023 923 994 1318 987 569 128 17 11 12 8 12 24 12 35 6 13 35 30 45 54 34 0 0 4 1 15 10 13 14 78 103 59 40
0 0 0 0 72 348 646 1148 1117 898 1015 1279 1163 1190 897 179 40 15 12 11 15 36 43 5 0 41 42 28 32 47 34 26 0 0 21 7 59 64 22 36 26 23 43
0 0 0 6 82 327 423 799 1168 950 749 1016 770 792 645 445 80 8 8 20 26 41 14 0 0 33 3 2 28 37 33 15 0 0 7 59 72 69 20 23 30 39 50
0 0 0 109 185 327 428 649 994 1038 973 857 759 506 469 585 103 5 6 10 15 33 0 0 14 9 0 0 3 34 0 0 0 0 0 0 6 19 11 10 14 22 31
0 0 0 254 246 259 331 442 567 795 740 785 683 430 314 330 162 6 2 0 4 15 0 0 0 11 0 0 2 0 0 0 0 0 2 5 12 15 11 15 13 12 12
0 0 1 1 129 222 327 398 498 629 554 460 542 520 448 271 294 15 16 2 0 1 0 0 0 0 0 0 0 0 0 0 0 0 2 9 25 14 12 17 11 9 10
0 1 3 2 1 4 7 5 22 155 216 217 311 264 337 300 263 158 188 90 2 12 0 0 0 0 0 0 0 0 0 0 0 0 2 13 32 14 12 11 13 12 10
0 0 1 1 3 0 0 10 6 5 4 2 1 0 0 0 0 20 211 190 153 91 57 1 0 0 0 0 0 0 0 0 0 0 35 38 50 10 13 7 6 4 7
0 1 0 6 5 2 2 1 2 1 1 0 0 0 0 0 0 0 0 13 149 252 245 125 16 0 0 0 0 0 0 0 0 0 28 39 31 6 21 9 6 5 2
0 5 9 5 4 3 3 0 0 0 0 0 0 0 0 0 0 0 0 0 0 21 9 87 21 0 0 0 0 0 0 0 0 0 5 32 35 8 31 19 5 3 1
3 1 1 1 1 2 5 2 1 1 0 1 0 0 0 0 0 0 0 0 0 0 0 2 68 0 0 2 0 0 0 0 0 0 0 0 33 11 24 19 3 1 1
1 0 1 1 1 2 3 7 3 1 1 0 1 0 0 0 0 0 0 0 0 0 0 0 0 0 0 5 18 4 0 0 0 1 0 0 9 6 6 3 5 1 0
1 1 2 1 1 1 1 1 2 2 1 2 1 1 0 0 0 0 0 0 0 0 0 0 0 0 0 0 0 0 0 0 0 0 3 0 0 16 5 0 0 1 6
0 0 0 0 1 1 2 1 2 1 2 1 1 1 1 1 1 0 0 0 0 0 0 0 0 0 0 0 0 0 0 0 0 0 0 0 0 0 0 33 48 52 48
0 0 0 0 0 0 0 1 2 4 2 1 2 2 1 1 1 1 1 0 0 0 0 0 0 0 0 0 0 0 0 0 0 0 0 0 0 0 0 0 22 35 42
0 0 0 0 0 0 0 1 0 2 2 2 1 2 3 2 1 1 2 1 0 0 0 0 0 0 0 0 0 0 0 0 0 0 0 0 0 0 0 0 1 2 0
0 0 0 0 0 0 0 0 0 0 1 2 2 2 2 2 2 1 2 2 2 1 0 0 0 0 0 0 0 0 0 0 0 0 0 0 0 0 0 0 0 2 2
0 0 0 0 0 0 0 0 0 0 0 1 2 3 2 2 1 2 2 2 2 1 1 1 0 0 0 0 0 0 0 0 0 0 0 0 0 0 0 0 5 1 0
0 0 0 0 0 0 0 0 0 0 0 0 0 0 0 1 2 2 4 2 2 2 1 1 1 0 1 0 0 0 0 0 0 0 0 0 0 0 0 0 2 1 0
0 0 0 0 0 0 0 0 0 0 0 0 0 0 0 0 1 1 3 2 1 2 1 0 0 2 3 1 1 0 0 0 0 0 0 0 0 0 0 0 0 0 0
0 0 0 0 0 0 0 0 0 0 0 0 0 0 0 0 0 0 0 2 2 2 2 2 0 0 1 1 0 1 1 0 0 0 0 0 0 0 0 0 0 0 0
0 0 0 0 0 0 0 0 0 0 0 0 0 0 0 0 0 0 0 0 1 1 1 3 1 1 0 0 0 0 0 0 0 0 0 0 0 0 0 0 0 0 0
0 0 0 0 0 0 0 0 0 0 0 0 0 0 0 0 0 0 0 0 0 1 1 0 1 0 0 0 0 0 0 0 0 0 0 0 0 0 0 0 0 0 0
0 0 0 0 0 0 0 0 0 0 0 0 0 0 0 0 0 0 0 0 0 0 0 0 0 0 0 0 0 0 0 0 0 0 0 0 0 0 0 0 0 0 0
CIN
-0 -0 -0 -33 -26 -1 -0 -0 -0 -2 -5 -1 -1 -0 -0 -12 -23 -0 -0 -0 -0 -139 -0 -0 -1 -1 -0 -0 -0 -0 -0 -0 -0 -0 -0 -0 -0 -0 -0 -0 -0 -0 -0
-0 -0 -0 -0 -33 -1 -0 -0 -0 -1 -5 -0 -0 -0 -0 -47 -18 -0 -0 -0 -0 -0 -1 -0 -0 -0 -0 -154 -38 -0 -0 -0 -0 -4 -9 -7 -2 -0 -0 -0 -1 -0 -0
-0 -0 -0 -0 -48 -10 -1 -0 -0 -1 -2 -0 -0 -0 -0 -59 -3 -0 -0 -0 -0 -1 -1 -1 -0 -0 -0 -0 -0 -0 -0 -0 -0 -12 -1 -0 -0 -0 -0 -0 -25 -0 -0
-0 -0 -0 -0 -40 -8 -1 -0 -0 -1 -1 -0 -0 -0 -0 -40 -8 -0 -0 -0 -0 -0 -3 -0 -0 -0 -0 -0 -0 -0 -0 -1 -0 -0 -0 -0 -0 -0 -0 -0 -0 -0 -1
-0 -0 -175 -95 -20 -7 -5 -1 -1 -1 -1 -0 -0 -0 -0 -0 -34 -0 -0 -0 -0 -0 -0 -0 -0 -0 -0 -0 -0 -0 -0 -7 -0 -0 -0 -0 -0 -0 -0 -0 -0 -1 -0
-0 -0 -0 -8 -4 -3 -3 -2 -2 -0 -0 -0 -0 -1 -1 -0 -24 -0 -0 -0 -0 -0 -0 -0 -0 -1 -0 -0 -0 -0 -0 -0 -0 -0 -0 -0 -0 -0 -0 -0 -0 -2 -0
-0 -0 -0 -3 -6 -7 -3 -2 -2 -1 -0 -0 -0 -1 -14 -25 -13 -0 -0 -0 -0 -0 -0 -0 -0 -0 -0 -0 -0 -0 -0 -0 -0 -0 -0 -0 -0 -0 -0 -0 -0 -0 -0
-0 -0 -0 -0 -28 -2 -2 -2 -3 -2 -0 -0 -0 -0 -2 -12 -30 -1 -2 -0 -0 -0 -0 -0 -0 -0 -0 -0 -0 -0 -0 -0 -0 -0 -0 -0 -0 -0 -0 -0 -0 -0 -0
-0 -0 -0 -0 -0 -0 -0 -0 -85 -22 -11 -8 -1 -4 -5 -1 -0 -0 -0 -1 -0 -0 -0 -0 -0 -0 -0 -0 -0 -0 -0 -0 -0 -0 -0 -0 -2 -0 -0 -0 -0 -0 -0
-0 -0 -0 -0 -0 -0 -0 -0 -0 -0 -0 -0 -0 -0 -0 -0 -0 -5 -1 -0 -0 -0 -0 -0 -0 -0 -0 -0 -0 -0 -0 -0 -0 -0 -0 -0 -1 -0 -0 -0 -0 -0 -0
-0 -0 -0 -0 -0 -0 -0 -0 -0 -0 -0 -0 -0 -0 -0 -0 -0 -0 -0 -9 -2 -0 -0 -0 -1 -0 -0 -0 -0 -0 -0 -0 -0 -0 -0 -4 -2 -0 -0 -0 -0 -0 -0
-0 -0 -0 -0 -0 -0 -0 -0 -0 -0 -0 -0 -0 -0 -0 -0 -0 -0 -0 -0 -0 -1 -2 -0 -2 -0 -0 -0 -0 -0 -0 -0 -0 -0 -0 -8 -0 -0 -0 -0 -0 -0 -0
-0 -0 -0 -0 -0 -0 -0 -0 -0 -0 -0 -0 -0 -0 -0 -0 -0 -0 -0 -0 -0 -0 -0 -0 -0 -0 -0 -8 -0 -0 -0 -0 -0 -0 -0 -0 -0 -0 -0 -0 -0 -0 -0
-0 -0 -0 -0 -0 -0 -0 -0 -0 -0 -0 -0 -0 -0 -0 -0 -0 -0 -0 -0 -0 -0 -0 -0 -0 -0 -0 -9 -13 -20 -0 -0 -0 -2 -0 -0 -1 -0 -0 -0 -0 -0 -0
-0 -0 -0 -0 -0 -0 -0 -0 -0 -0 -0 -0 -0 -0 -0 -0 -0 -0 -0 -0 -0 -0 -0 -0 -0 -0 -0 -0 -0 -30 -0 -18 -0 -0 -18 -0 -0 -5 -0 -0 -0 -0 -0
-0 -0 -0 -0 -0 -0 -0 -0 -0 -0 -0 -0 -0 -0 -0 -0 -0 -0 -0 -0 -0 -0 -0 -0 -0 -0 -0 -0 -0 -0 -0 -0 -0 -40 -0 -0 -0 -0 -0 -0 -0 -0 -0
-0 -0 -0 -0 -0 -0 -0 -0 -0 -0 -0 -0 -0 -0 -0 -0 -0 -0 -0 -0 -0 -0 -0 -0 -0 -0 -0 -0 -0 -0 -0 -0 -0 -0 -0 -0 -0 -0 -0 -0 -2 -1 -1
-0 -0 -0 -0 -0 -0 -0 -0 -0 -0 -0 -0 -0 -0 -0 -0 -0 -0 -0 -0 -0 -0 -0 -0 -0 -0 -0 -0 -0 -0 -0 -0 -0 -0 -0 -0 -0 -0 -0 -0 -5 -7 -0
-0 -0 -0 -0 -0 -0 -0 -0 -0 -0 -0 -0 -0 -0 -0 -0 -0 -0 -0 -0 -0 -0 -0 -0 -0 -0 -0 -0 -0 -0 -0 -0 -0 -0 -0 -0 -0 -0 -0 -0 -51 -49 -16
-0 -0 -0 -0 -0 -0 -0 -0 -0 -0 -0 -0 -0 -0 -0 -0 -0 -0 -0 -0 -0 -0 -0 -0 -0 -0 -0 -0 -0 -0 -0 -0 -0 -0 -0 -0 -0 -0 -0 -0 -23 -8 -7
-0 -0 -0 -0 -0 -0 -0 -0 -0 -0 -0 -0 -0 -0 -0 -0 -0 -0 -0 -0 -0 -0 -0 -0 -0 -0 -0 -0 -0 -0 -0 -0 -0 -0 -0 -0 -0 -0 -0 -0 -0 -0 -0
-0 -0 -0 -0 -0 -0 -0 -0 -0 -0 -0 -0 -0 -0 -0 -0 -0 -0 -0 -0 -0 -0 -0 -0 -0 -0 -0 -0 -0 -0 -0 -0 -0 -0 -0 -0 -0 -0 -0 -0 -0 -0 -0
-0 -0 -0 -0 -0 -0 -0 -0 -0 -0 -0 -0 -0 -0 -0 -0 -0 -0 -0 -0 -0 -0 -0 -0 -0 -0 -0 -0 -0 -0 -0 -0 -0 -0 -0 -0 -0 -0 -0 -0 -0 -0 -0
-0 -0 -0 -0 -0 -0 -0 -0 -0 -0 -0 -0 -0 -0 -0 -0 -0 -0 -0 -0 -0 -0 -0 -0 -0 -0 -0 -0 -0 -0 -0 -0 -0 -0 -0 -0 -0 -0 -0 -0 -0 -0 -0
-0 -0 -0 -0 -0 -0 -0 -0 -0 -0 -0 -0 -0 -0 -0 -0 -0 -0 -0 -0 -0 -0 -0 -0 -0 -0 -0 -0 -0 -0 -0 -0 -0 -0 -0 -0 -0 -0 -0 -0 -0 -0 -0
-0 -0 -0 -0 -0 -0 -0 -0 -0 -0 -0 -0 -0 -0 -0 -0 -0 -0 -0 -0 -0 -0 -0 -0 -0 -0 -0 -0 -0 -0 -0 -0 -0 -0 -0 -0 -0 -0 -0 -0 -0 -0 -0
Wind_Speed
3 3 4 5 6 9 14 12 11 12 16 19 19 19 18 17 17 15 16 15 13 14 15 15 13 15 13 13 14 15 15 16 16 15 13 13 13 15 15 15 13 15 17
5 3 6 5 5 10 14 13 10 10 16 17 18 19 18 17 16 16 15 15 15 15 15 14 14 12 13 14 15 15 15 15 14 12 8 10 11 14 15 14 13 15 16
2 4 5 6 2 8 13 12 12 10 15 16 18 19 19 16 16 16 15 14 14 15 15 16 13 12 15 15 14 15 15 13 12 9 7 9 12 14 15 14 15 16 17
2 4 4 6 3 8 13 13 13 11 14 16 16 18 17 17 16 15 14 15 13 15 16 13 11 13 14 14 14 15 14 13 11 8 9 9 10 15 16 16 17 17 16
5 5 5 7 5 8 13 13 12 13 13 13 14 16 16 16 17 15 14 14 12 13 14 12 11 13 13 12 13 14 13 12 10 9 10 11 10 14 17 16 15 17 16
8 9 9 9 7 9 12 12 12 14 13 13 11 13 15 16 17 17 15 13 12 12 13 12 13 13 12 11 12 13 12 11 8 8 8 9 11 15 16 16 16 16 17
9 10 14 5 6 9 10 10 9 12 14 14 14 12 14 16 16 16 16 14 13 13 12 12 13 12 11 10 11 11 11 9 9 9 9 9 11 14 14 15 15 15 15
9 11 11 20 17 5 8 8 9 11 12 12 12 12 12 14 16 16 14 14 14 15 13 12 12 12 12 12 11 10 9 8 7 8 8 8 10 13 14 14 14 14 15
9 10 11 11 13 19 21 21 19 7 7 9 12 14 11 12 14 15 13 12 13 13 12 11 10 11 11 10 10 9 9 7 7 5 6 6 10 13 12 12 13 14 14
9 10 10 11 8 10 11 20 19 20 19 18 17 17 17 17 13 10 7 10 11 11 11 10 10 10 10 9 9 9 9 7 6 5 4 5 10 12 12 12 12 12 13
9 9 10 9 10 8 9 11 13 16 16 13 14 16 13 8 9 11 10 8 6 9 9 8 9 9 8 7 8 9 6 4 5 3 2 2 9 10 10 11 11 11 12
9 9 8 8 8 8 5 7 8 8 8 7 8 11 8 9 8 7 10 12 10 6 6 4 9 8 5 4 4 6 3 5 4 4 2 4 10 8 9 9 9 10 11
7 7 8 7 7 8 7 4 4 3 5 5 8 8 8 7 7 6 4 5 5 9 3 1 5 3 5 4 4 4 5 5 4 3 3 5 7 7 7 7 7 8 9
9 7 7 7 7 8 5 5 5 6 5 2 6 9 6 4 6 6 5 6 6 5 6 4 1 3 3 4 5 5 7 5 4 3 4 5 5 6 6 6 6 6 7
9 6 6 8 7 7 8 5 4 7 4 4 7 7 6 6 5 5 6 5 5 5 6 5 4 2 2 2 2 3 7 6 6 4 3 5 5 5 4 4 5 4 4
8 5 6 7 7 7 7 7 6 3 5 6 5 7 7 7 4 5 5 6 6 6 5 4 3 4 3 3 4 4 4 4 4 4 3 3 4 3 3 3 2 2 2
6 6 6 7 7 8 8 6 6 5 5 7 6 8 6 6 6 5 4 5 5 5 7 6 6 4 3 3 4 4 3 4 3 3 2 2 3 4 3 2 4 5 6
7 7 7 6 7 8 7 5 5 8 5 5 7 5 8 7 9 7 4 4 5 5 5 6 6 4 4 4 3 3 3 3 3 4 3 3 3 2 2 4 1 4 5
7 7 8 8 9 8 7 6 6 6 6 5 5 5 5 8 7 7 4 4 4 4 5 4 5 5 5 5 4 2 3 3 3 3 3 3 3 2 2 4 5 7 6
7 7 8 7 7 6 5 5 5 6 5 6 5 5 6 5 8 6 4 5 5 3 4 3 5 6 5 6 4 3 3 2 1 2 2 1 2 3 3 3 4 7 13
8 7 7 7 4 3 3 3 3 4 5 5 4 6 7 6 6 5 4 5 6 4 4 4 3 6 6 7 2 3 3 5 6 4 2 3 5 5 6 5 3 4 7
5 6 6 6 5 4 3 1 2 3 4 5 4 6 8 6 4 4 5 6 6 2 4 4 4 3 1 7 3 1 2 3 4 8 6 5 7 5 6 7 8 8 7
5 5 5 5 5 5 4 3 3 3 3 3 4 4 5 6 5 5 6 5 4 2 3 4 5 4 4 3 4 2 3 2 1 2 7 7 7 5 6 8 9 9 9
3 4 5 5 5 5 3 3 3 2 3 2 4 5 4 6 6 4 4 5 4 2 4 3 4 4 2 4 1 2 1 3 3 2 3 4 6 7 7 6 7 9 9
4 4 4 5 6 5 4 4 4 4 4 4 4 7 6 5 6 5 5 6 5 2 3 4 2 5 4 2 1 2 2 2 3 1 2 2 3 5 6 6 6 7 9
4 5 5 5 7 6 5 5 5 7 6 5 4 5 4 3 4 4 5 5 5 4 3 3 2 3 5 4 0 2 2 3 2 2 0 2 3 3 4 5 6 6 6
Wind_Direction
212 272 322 316 344 188 148 144 141 141 131 133 134 137 136 134 131 127 124 124 120 117 112 111 100 91 88 92 91 83 81 79 75 74 65 62 67 70 68 64 55 59 53
293 288 296 299 339 187 153 147 143 143 140 138 137 139 136 136 133 131 128 128 128 126 118 114 101 100 102 98 90 93 90 83 79 71 61 83 76 71 64 65 60 62 53
313 303 286 292 312 186 155 145 138 146 145 144 144 143 140 140 135 133 131 130 131 122 119 101 103 101 110 96 90 98 93 87 82 70 58 78 83 77 68 59 57 61 58
9 304 266 270 290 186 160 143 139 142 142 148 150 145 143 139 137 132 133 132 134 121 110 107 104 107 104 100 95 101 95 90 80 63 74 77 76 82 73 67 67 60 53
33 360 275 253 249 174 167 154 145 142 142 146 150 149 145 140 135 131 133 129 129 117 114 110 112 116 108 103 101 103 99 93 80 84 75 73 74 79 74 63 66 63 59
32 19 318 232 221 174 166 161 151 142 143 144 146 151 149 142 137 136 130 125 126 124 122 113 114 115 110 106 106 104 100 94 92 84 77 76 75 75 77 74 59 59 58
34 25 6 202 196 165 161 161 152 140 142 135 135 141 158 145 137 135 132 132 136 135 129 120 121 118 108 107 111 104 96 86 95 87 80 78 81 85 76 73 71 68 61
45 25 19 46 59 83 159 159 154 140 139 135 130 130 149 150 135 136 135 135 139 138 132 124 124 125 116 108 110 102 89 81 91 88 84 88 85 78 74 77 76 72 68
43 40 28 36 56 60 64 66 66 87 112 87 117 68 93 143 138 139 138 138 138 136 131 124 121 120 121 119 113 114 99 80 91 84 85 86 86 86 82 77 75 74 70
40 42 33 28 28 66 54 59 62 68 70 72 73 61 60 47 53 70 125 144 137 131 129 129 128 123 115 121 120 119 107 100 100 96 83 87 85 87 86 82 78 75 71
47 29 40 23 23 33 67 62 48 58 59 58 62 65 58 48 33 35 33 68 100 128 124 130 128 122 113 105 130 122 124 115 113 99 97 77 105 91 87 84 79 76 75
48 34 34 30 29 30 35 73 62 40 49 35 59 62 58 55 45 40 26 31 34 84 96 129 130 123 136 133 122 139 125 131 123 116 95 34 104 99 94 88 82 78 76
79 51 36 48 42 45 35 26 72 29 62 23 44 58 65 51 32 34 27 14 12 10 57 100 138 160 166 161 157 156 150 140 131 129 105 59 91 103 101 94 89 84 79
79 58 31 38 46 51 53 43 32 61 73 38 56 48 39 61 51 27 27 21 21 7 7 6 142 157 177 185 178 164 166 148 140 134 118 88 84 102 104 105 97 89 83
80 64 45 44 40 51 57 41 30 61 39 30 67 50 69 37 41 69 32 33 36 20 8 353 352 20 86 118 142 138 161 151 146 141 124 67 74 72 105 120 119 113 103
80 71 57 60 50 56 59 56 33 51 59 55 45 75 56 62 39 11 50 36 22 17 354 4 355 354 352 48 70 76 82 90 113 131 134 119 68 52 50 46 98 113 129
82 90 86 66 66 62 61 54 60 21 53 70 38 38 59 106 74 44 21 39 29 14 11 6 12 9 12 3 58 51 57 61 69 81 89 101 108 68 24 8 50 54 40
87 73 64 79 74 75 68 61 59 47 38 45 81 37 30 43 87 69 40 24 11 17 33 17 17 20 18 25 4 3 18 25 40 32 32 34 46 19 29 18 78 61 42
79 84 81 81 83 88 90 88 82 83 58 48 50 67 41 46 55 83 60 45 24 30 25 44 26 29 25 3 343 2 345 348 359 12 16 27 31 26 360 345 73 68 55
69 78 80 79 84 86 91 96 83 77 71 61 64 70 64 66 60 67 74 66 52 40 32 21 76 38 34 351 326 337 5 352 3 344 0 7 30 19 20 346 114 77 57
62 72 73 89 84 88 63 70 72 77 89 79 77 73 69 66 54 85 75 72 65 47 53 19 61 65 30 354 326 35 70 36 27 21 19 55 49 32 48 25 73 93 74
70 66 75 79 73 56 66 67 99 123 91 98 88 77 77 70 62 70 77 69 69 56 52 53 55 106 146 24 28 40 42 21 38 18 2 47 42 33 46 51 56 54 64
61 51 67 67 69 71 91 103 101 105 106 92 78 78 76 82 69 71 77 79 75 70 75 54 57 66 79 60 39 21 152 99 69 325 6 24 39 37 43 60 63 64 62
54 70 69 59 57 55 63 98 89 108 123 91 107 96 84 94 92 84 85 85 70 47 83 57 79 77 117 95 23 57 238 104 56 54 183 22 47 42 47 57 66 62 58
37 43 53 65 49 35 59 89 108 99 94 109 106 102 89 76 84 91 106 109 99 101 66 72 50 88 47 90 346 94 304 97 91 263 27 14 64 35 50 53 59 64 55
60 55 52 56 54 36 55 63 88 118 126 117 117 110 102 90 65 57 76 79 97 94 103 104 47 82 108 100 268 220 164 145 107 68 29 311 2 4 46 61 56 59 58